Weather History for KIPT - February, 2015

Change the Weather History Date:

Wednesday, February 18, 2015

  Actual Average Record
Temperature  
Mean Temperature 13 °F 30 °F  
Max Temperature 26 °F 39 °F 66 °F (2011)
Min Temperature 0 °F 22 °F -12 °F (1979)
Degree Days  
Heating Degree Days 52 35  
Month to date heating degree days 814 653  
Since 1 July heating degree days 4144 4132  
Cooling Degree Days 0 0  
Month to date cooling degree days 0 0  
Year to date cooling degree days 0 0  
Moisture  
Dew Point 6 °F    
Average Humidity 66    
Maximum Humidity 87    
Minimum Humidity 44    
Precipitation  
Precipitation 0.02 in 0.08 in 1.49 in (1998)
Month to date precipitation 0.95 1.49  
Year to date precipitation 2.66 4.19  
Snow  
Snow 1.00 in 0.30 in 4.50 in (2000)
Month to date snowfall 8.2 5.7  
Since 1 July snowfall 32.0 24.9  
Snow Depth 6.00 in    
Sea Level Pressure  
Sea Level Pressure 29.81 in    
Wind  
Wind Speed 7 mph (WSW)    
Max Wind Speed 31 mph    
Max Gust Speed 40 mph    
Visibility 8 miles    
Events Fog , Snow    
T = Trace of Precipitation, MM = Missing Value Source: NWS Daily Summary

Daily Weather History Graph

Daily Weather History Graph

Search for Another Location

Airport or City:

Trip Planner

Search our weather history database for the weather conditions in past years. The results will help you decide how hot, cold, wet, or windy it might be!

Date:

Astronomy

Feb. 18, 2015 Rise Set
Actual Time 6:58 AM EST 5:45 PM EST
Civil Twilight 6:30 AM EST 6:13 PM EST
Nautical Twilight 5:58 AM EST 6:45 PM EST
Astronomical Twilight 5:26 AM EST 7:17 PM EST
Moon 6:26 AM EST (2/18) 5:43 PM EST (2/18)
Length of Visible Light 11h 42m
Length of Day
10h 46m
Waning Crescent, 0% of the Moon is Illuminated
Feb 18
Waning Crescent
Feb 18
New
Feb 25
First Quarter
Mar 5
Full
Mar 13
Last Quarter

Hourly Weather History & Observations

Time (EST) Temp. Windchill Dew Point Humidity Pressure Visibility Wind Dir Wind Speed Gust Speed Precip Events Conditions
12:54 AM 5.0 °F - -0.9 °F 76% 29.97 in 10.0 mi Calm Calm - N/A   Clear
1:54 AM 3.9 °F - -2.9 °F 73% 29.97 in 10.0 mi Calm Calm - N/A   Clear
2:54 AM 3.0 °F - -2.0 °F 80% 29.96 in 10.0 mi Calm Calm - N/A   Clear
3:54 AM 3.2 °F - -2.2 °F 78% 29.90 in 10.0 mi Calm Calm - N/A   Overcast
4:54 AM 3.9 °F - -2.0 °F 76% 29.94 in 10.0 mi Calm Calm - N/A   Overcast
5:54 AM 3.0 °F - -4.0 °F 73% 29.95 in 10.0 mi Calm Calm - N/A   Scattered Clouds
6:54 AM 1.4 °F - -5.8 °F 72% 29.90 in 10.0 mi Calm Calm - N/A   Partly Cloudy
7:54 AM 3.0 °F - -0.9 °F 84% 29.93 in 9.0 mi Calm Calm - N/A   Clear
8:54 AM 5.0 °F - 1.0 °F 84% 29.92 in 8.0 mi Calm Calm - N/A   Partly Cloudy
9:54 AM 8.1 °F -0.5 °F -0.0 °F 70% 29.88 in 10.0 mi SE 4.6 mph - N/A   Clear
10:54 AM 16.0 °F 7.4 °F 3.0 °F 57% 29.85 in 10.0 mi ESE 5.8 mph - N/A   Clear
11:54 AM 23.0 °F 12.4 °F 5.0 °F 46% 29.81 in 10.0 mi ESE 10.4 mph - 0.00 in   Scattered Clouds
12:54 PM 23.0 °F 18.4 °F 3.9 °F 44% 29.76 in 10.0 mi Variable 3.5 mph - N/A   Overcast
1:54 PM 24.8 °F 20.5 °F 6.8 °F 46% 29.69 in 10.0 mi SE 3.5 mph - N/A   Mostly Cloudy
2:54 PM 25.0 °F 17.1 °F 8.1 °F 49% 29.70 in 10.0 mi East 6.9 mph - N/A   Overcast
3:54 PM 26.1 °F 21.9 °F 8.1 °F 47% 29.70 in 10.0 mi SE 3.5 mph - N/A   Overcast
4:54 PM 25.0 °F 19.3 °F 10.9 °F 55% 29.70 in 6.0 mi Variable 4.6 mph 23.0 mph 0.00 in Snow Light Snow
5:54 PM 24.1 °F 16.0 °F 10.0 °F 55% 29.71 in 10.0 mi SSE 6.9 mph - 0.00 in   Mostly Cloudy
6:54 PM 24.1 °F 16.0 °F 14.0 °F 65% 29.72 in 9.0 mi SE 6.9 mph - N/A   Overcast
7:10 PM 24.1 °F 17.0 °F 15.1 °F 69% 29.69 in 2.5 mi SE 5.8 mph - 0.00 in Snow Light Snow
7:28 PM 23.0 °F 13.9 °F 17.1 °F 78% 29.69 in 1.5 mi SSE 8.1 mph - 0.00 in Snow Light Snow
7:36 PM 23.0 °F 13.9 °F 17.1 °F 78% 29.70 in 0.8 mi SSE 8.1 mph - 0.00 in Snow Light Snow
7:54 PM 19.0 °F 1.3 °F 16.0 °F 88% 29.77 in 0.2 mi WNW 25.3 mph 39.1 mph 0.01 in Fog , Snow Heavy Snow
8:00 PM 19.0 °F 4.0 °F 15.1 °F 85% 29.74 in 0.2 mi WNW 17.3 mph 38.0 mph 0.00 in Fog , Snow Snow
8:04 PM 19.9 °F 6.2 °F 15.1 °F 81% 29.74 in 1.0 mi WNW 15.0 mph 28.8 mph 0.01 in Snow Light Snow
8:09 PM 19.9 °F 6.2 °F 15.1 °F 81% 29.74 in 2.5 mi WNW 15.0 mph 24.2 mph 0.01 in Snow Light Snow
8:17 PM 19.9 °F 3.9 °F 12.9 °F 74% 29.74 in 4.0 mi WNW 20.7 mph 29.9 mph 0.01 in Snow Light Snow
8:30 PM 19.9 °F 6.2 °F 10.9 °F 68% 29.75 in 9.0 mi NW 15.0 mph - 0.01 in   Overcast
8:54 PM 19.0 °F 3.2 °F 9.0 °F 65% 29.81 in 7.0 mi WNW 19.6 mph 27.6 mph 0.01 in Snow Light Snow
9:03 PM 18.0 °F 4.8 °F 9.0 °F 68% 29.78 in 4.0 mi NW 12.7 mph 27.6 mph 0.00 in Snow Light Snow
9:12 PM 18.0 °F 5.4 °F 8.1 °F 65% 29.79 in 9.0 mi WNW 11.5 mph - 0.00 in   Overcast
9:54 PM 18.0 °F 3.1 °F 1.9 °F 50% 29.83 in 10.0 mi WNW 16.1 mph - 0.00 in   Overcast
10:54 PM 16.0 °F 2.9 °F 3.0 °F 57% 29.85 in 10.0 mi West 11.5 mph - N/A   Overcast
11:54 PM 14.0 °F 0.5 °F 1.0 °F 56% 29.85 in 10.0 mi West 11.5 mph - N/A   Scattered Clouds